User: anonymous   Login
Location: Unspecified
(0.0000°N, 0.0000°E)
Time: 23:03:54
(UTC+00:00)
Language:

Tiros 1 despin weight - Orbit

View from above orbital plane
View from above orbital plane
View from above satellite
View from above satellite

Ground track
Ground track

The orbit data is extracted from the following two-line orbital elements,

1   115U 60002D   20275.80032809  .00000019  00000-0  29392-4 0  9990
2   115  48.1658 122.8382 0034693 356.7540   3.3142 14.83622705228768
Epoch (UTC): 01 October 2020 19:12:28
Eccentricity: 0.0034693
inclination: 48.1658°
perigee height: 593 km
apogee height: 642 km
right ascension of ascending node: 122.8382°
argument of perigee: 356.7540°
revolutions per day: 14.83622705
mean anomaly at epoch: 3.3142°
orbit number at epoch: 22876

The dashed part of the orbit path shows where the satellite is in the earth's shadow,  

DLR